Regional Weather Roundup
Issued by NWS Newport/Morehead, NC

Home | Current Version | Previous Version | Text Only | Print | Product List | Glossary On
Versions: 1 2 3 4 5 6 7 8 9 10 11 12 13 14 15 16 17 18 19 20 21 22 23 24 25 26 27 28 29 30 31 32 33 34 35 36 37 38 39 40 41 42 43 44 45 46 47 48 49 50
000
ASUS42 KMHX 230922
RWRMHX
WEATHER ROUNDUP FOR EASTERN NORTH CAROLINA
NATIONAL WEATHER SERVICE NEWPORT/MOREHEAD CITY NC
500 AM EDT SAT AUG 23 2014

NOTE: "FAIR" INDICATES FEW OR NO CLOUDS BELOW 12,000 FEET
WITH NO SIGNIFICANT WEATHER AND/OR OBSTRUCTIONS TO VISIBILITY

NCZ015>017-031-032-045>047-102-103-231000-
NORTH COAST

CITY           SKY/WX    TMP DP  RH WIND       PRES   REMARKS
EDENTON        MOCLDY    72  71  96 NE3       29.93R FOG
ELIZABETH CITY CLEAR     74  72  93 N6        29.93S
KITTY HAWK     MOSUNNY   76  72  87 NE3       29.91S
MANTEO         CLEAR     75  72  88 NE7       29.92S

$$

NCZ045>047-081-094-103-104-231000-
CENTRAL COAST

CITY           SKY/WX    TMP DP  RH WIND       PRES   REMARKS
FRISCO         CLOUDY    75  72  90 NE3       29.91F
SWANQUARTER      N/A     73 N/A N/A CALM      29.88S

$$

NCZ095-097-098-100-101-231000-
SOUTHERN COAST

CITY           SKY/WX    TMP DP  RH WIND       PRES   REMARKS
BEAUFORT       CLOUDY    78  75  90 NE3       29.91F
CEDAR ISLAND     N/A     81 N/A N/A N5G10     29.94F
JACKSONVILLE   PTCLDY    75  71  87 CALM      29.90F
NEWPORT        NOT AVBL
PINEY ISLAND   PTSUNNY   81  75  82 NE7       29.91
WILMINGTON     CLEAR     73  72  96 CALM      29.90F


$$

NCZ011>013-027>030-043-044-078>080-089-090>093-098-231000-
COASTAL PLAIN

CITY           SKY/WX    TMP DP  RH WIND       PRES   REMARKS
AHOSKIE        MOCLDY    70  69  95 CALM      29.94S
CLINTON        MOCLDY    73  73 100 CALM      29.92F
ELIZABETHTOWN  CLOUDY    73  73  97 CALM      29.91F
GOLDSBORO      MOCLDY    75  75 100 N3        29.91S
GREENVILLE     MOCLDY    75  72  88 CALM      29.95S
HAVELOCK       CLOUDY    78  74  87 CALM      29.92F
KENANSVILLE    MOCLDY    72  70  96 CALM      29.93S
KINSTON        MOCLDY    74  73  96 N3        29.93S
NEW BERN       MOCLDY    78  73  84 CALM      29.93F
RICHLANDS      PTCLDY    72  68  88 N3        29.92R
ROANOKE RAPIDS NOT AVBL
ROCKY MOUNT    LGT RAIN  74  72  93 CALM      29.93S FOG
WASHINGTON     MOCLDY    73  71  93 CALM      29.93S
WHITEVILLE     PTCLDY    76  73  93 CALM      29.90S

$$

AMZ130-135-150-152-154-156-158-170-250-252-270-ANZ085-086-088-633-658-670-231000-
MARINE OBSERVATIONS

STATION/POSITION TIME  TEMP    WIND        PRES    WAVE   SWELL
                       AIR SEA DIR/SP/G            HT/PER HT/PER
                 (UTC) (F)     (DEG/KT/KT) (MB)    (FT/S) (FT/S)
CHESAPEAKE LIGHT 0900   76      60/ 12/ 12 1014.2
BUOY 44014       0900   77 78   50/  6/  8 1012.9    2/ 8   2/ 8
DUCK             0900   77 80   60/ 10/ 10 1012.5
2E DUCK          0900                        N/A     2/ 7
OREGON INLET     0900   76 82   30/  7/  9 1012.8
BUOY 44095       0900      80                N/A     2/ 9
20E OREGON INLET NOT AVBL
HATTERAS CG      0900   79 82   40/  4/  5 1013.3
DIAMOND BUOY     0900   78     350/  8/ 12 1012.5    2/ 6   2/ 6
CAPE LOOKOUT     0900   80      60/  7/  8 1012.8
BEAUFORT LAB     0900   78 83   30/  3/  5 1012.6
30 SE NEW RIVER  0900   82 83  360/  8/  8 1012.3    2/ 4   2/ 4
5 SE WRIGHTSVILL 0900   78 83   90/  8/  8   N/A
BUOY 41002       0759   82 82  270/ 16/ 17 1013.6    3/ 4   2/ 7
BUOY 41004       0900   85 85  220/ 12/ 16 1011.9    2/ 4   2/ 9

$$



USA.gov is the U.S. government's official web portal to all federal, state and local government web resources and services.